Location: Nitra
(0.0000°N, 18.0833°E)
Time: 03:06:32
(UTC+02:00)

STRAND 1 - Pass Details

Date: 08 June 2023
Orbit: 767 x 778 km, 98.4° (Epoch: 01 October)

Event Time Altitude Azimuth Distance (km) Brightness Sun altitude
Rises 19:41:44 0° 355° (N) 3,243 ? -12.6°
Reaches altitude 10° 19:44:14 10° 345° (NNW) 2,317 ? -13.2°
Maximum altitude 19:48:46 33° 282° (WNW) 1,286 ? -14.3°
Drops below altitude 10° 19:53:19 10° 219° (SW) 2,319 ? -15.3°
Sets 19:55:51 0° 210° (SSW) 3,247 ? -15.9°
